Time,TemperatureF,DewpointF,PressureIn,WindDirection,WindDirectionDegrees,WindSpeedMPH,WindSpeedGustMPH,Humidity,HourlyPrecipIn,Conditions,Clouds,dailyrainin,SolarRadiationWatts/m^2,SoftwareType,DateUTC
2013-08-07 00:02:00,61.3,57.7,29.66,SSW,213,4.0,7.0,88,0.00,,OVC016,0.00,0.00,VWS V14.01,2013-08-07 05:02:00,
2013-08-07 00:07:00,61.2,57.6,29.67,SW,216,4.0,9.0,88,0.00,,OVC016,0.00,0.00,VWS V14.01,2013-08-07 05:07:00,
2013-08-07 00:12:00,61.1,57.5,29.67,SW,227,4.0,9.0,88,0.00,,OVC016,0.00,0.00,VWS V14.01,2013-08-07 05:12:00,
2013-08-07 00:17:00,61.0,57.4,29.67,SW,229,3.0,9.0,88,0.00,,OVC016,0.00,0.00,VWS V14.01,2013-08-07 05:17:00,
2013-08-07 00:22:00,60.9,57.3,29.67,SW,230,3.0,9.0,88,0.00,,OVC016,0.00,0.00,VWS V14.01,2013-08-07 05:22:00,
2013-08-07 00:27:00,60.9,57.3,29.68,SW,225,0.0,9.0,88,0.00,,OVC016,0.00,0.00,VWS V14.01,2013-08-07 05:27:00,
2013-08-07 00:32:00,60.8,57.2,29.68,SW,225,0.0,3.0,88,0.00,,OVC016,0.00,0.00,VWS V14.01,2013-08-07 05:32:00,
2013-08-07 00:37:00,60.7,57.1,29.68,SW,225,0.0,3.0,88,0.00,,OVC016,0.00,0.00,VWS V14.01,2013-08-07 05:37:00,
2013-08-07 00:42:00,60.6,57.0,29.68,SW,225,0.0,3.0,88,0.00,,SCT016,0.00,0.00,VWS V14.01,2013-08-07 05:42:00,
2013-08-07 00:47:00,60.6,57.0,29.68,SW,225,0.0,3.0,88,0.00,,SCT016,0.00,0.00,VWS V14.01,2013-08-07 05:47:00,
2013-08-07 00:52:00,60.5,56.9,29.68,SW,225,0.0,3.0,88,0.00,,SCT016,0.00,0.00,VWS V14.01,2013-08-07 05:52:00,
2013-08-07 00:57:00,60.5,56.9,29.68,SW,225,0.0,3.0,88,0.00,,SCT016,0.00,0.00,VWS V14.01,2013-08-07 05:57:00,
2013-08-07 01:02:00,60.4,56.8,29.69,SW,225,0.0,0.0,88,0.00,,SCT016,0.00,0.00,VWS V14.01,2013-08-07 06:02:00,
2013-08-07 01:07:00,60.2,56.6,29.69,SW,225,0.0,0.0,88,0.00,,SCT016,0.00,0.00,VWS V14.01,2013-08-07 06:07:00,
2013-08-07 01:12:00,60.2,56.6,29.69,SW,225,0.0,0.0,88,0.00,,SCT016,0.00,0.00,VWS V14.01,2013-08-07 06:12:00,
2013-08-07 01:17:00,60.0,56.4,29.69,SW,225,0.0,0.0,88,0.00,,SCT016,0.00,0.00,VWS V14.01,2013-08-07 06:17:00,
2013-08-07 01:22:00,59.9,56.3,29.69,SW,225,0.0,0.0,88,0.00,,CLR,0.00,0.00,VWS V14.01,2013-08-07 06:22:00,
2013-08-07 01:27:00,59.6,56.0,29.69,SW,225,0.0,0.0,88,0.00,,CLR,0.00,0.00,VWS V14.01,2013-08-07 06:27:00,
2013-08-07 01:32:00,59.5,56.0,29.69,SW,225,0.0,0.0,88,0.00,,CLR,0.00,0.00,VWS V14.01,2013-08-07 06:32:00,
2013-08-07 01:37:00,59.6,56.0,29.69,SW,225,0.0,0.0,88,0.00,,CLR,0.00,0.00,VWS V14.01,2013-08-07 06:37:00,
2013-08-07 01:42:00,59.6,56.0,29.69,SW,225,0.0,0.0,88,0.00,,CLR,0.00,0.00,VWS V14.01,2013-08-07 06:42:00,
2013-08-07 01:47:00,59.7,56.2,29.70,SW,225,0.0,0.0,88,0.00,,CLR,0.00,0.00,VWS V14.01,2013-08-07 06:47:00,
2013-08-07 01:52:00,59.5,56.0,29.70,SW,225,0.0,0.0,88,0.00,,CLR,0.00,0.00,VWS V14.01,2013-08-07 06:52:00,
2013-08-07 01:57:00,59.3,55.8,29.70,SW,225,0.0,0.0,88,0.00,,CLR,0.00,0.00,VWS V14.01,2013-08-07 06:57:00,
2013-08-07 02:02:00,59.2,55.7,29.69,SW,225,0.0,0.0,88,0.00,,CLR,0.00,0.00,VWS V14.01,2013-08-07 07:02:00,
2013-08-07 02:07:00,59.2,55.7,29.69,SW,225,0.0,0.0,88,0.00,,CLR,0.00,0.00,VWS V14.01,2013-08-07 07:07:00,
2013-08-07 02:12:00,59.1,55.5,29.69,SW,225,0.0,0.0,88,0.00,,CLR,0.00,0.00,VWS V14.01,2013-08-07 07:12:00,
2013-08-07 02:17:00,58.3,55.1,29.70,SW,225,0.0,0.0,89,0.00,,CLR,0.00,0.00,VWS V14.01,2013-08-07 07:17:00,
2013-08-07 02:22:00,57.8,54.6,29.70,SW,225,0.0,0.0,89,0.00,,CLR,0.00,0.00,VWS V14.01,2013-08-07 07:22:00,
2013-08-07 02:27:00,57.9,54.4,29.70,SW,225,0.0,0.0,88,0.00,,CLR,0.00,0.00,VWS V14.01,2013-08-07 07:27:00,
2013-08-07 02:32:00,57.8,54.3,29.70,SW,225,0.0,0.0,88,0.00,,CLR,0.00,0.00,VWS V14.01,2013-08-07 07:32:00,
2013-08-07 02:37:00,57.9,54.4,29.70,SW,225,0.0,0.0,88,0.00,,CLR,0.00,0.00,VWS V14.01,2013-08-07 07:37:00,
2013-08-07 02:42:00,58.1,54.6,29.70,SW,225,0.0,0.0,88,0.00,,CLR,0.00,0.00,VWS V14.01,2013-08-07 07:42:00,
2013-08-07 02:47:00,58.4,54.9,29.70,SW,225,0.0,0.0,88,0.00,,CLR,0.00,0.00,VWS V14.01,2013-08-07 07:47:00,
2013-08-07 02:52:00,58.3,54.8,29.70,SW,225,0.0,0.0,88,0.00,,CLR,0.00,0.00,VWS V14.01,2013-08-07 07:52:00,
2013-08-07 02:57:00,58.4,54.9,29.71,SW,225,0.0,0.0,88,0.00,,CLR,0.00,0.00,VWS V14.01,2013-08-07 07:57:00,
2013-08-07 03:02:00,58.5,55.0,29.70,SW,225,0.0,0.0,88,0.00,,CLR,0.00,0.00,VWS V14.01,2013-08-07 08:02:00,
2013-08-07 03:07:00,58.5,55.0,29.70,SW,225,0.0,0.0,88,0.00,,CLR,0.00,0.00,VWS V14.01,2013-08-07 08:07:00,
2013-08-07 03:12:00,58.4,54.9,29.70,SW,225,0.0,0.0,88,0.00,,CLR,0.00,0.00,VWS V14.01,2013-08-07 08:12:00,
2013-08-07 03:17:00,58.2,54.7,29.70,SW,225,0.0,0.0,88,0.00,,CLR,0.00,0.00,VWS V14.01,2013-08-07 08:17:00,
2013-08-07 03:22:00,58.2,54.7,29.70,SW,225,0.0,0.0,88,0.00,,CLR,0.00,0.00,VWS V14.01,2013-08-07 08:22:00,
2013-08-07 03:27:00,57.7,54.2,29.70,SW,225,0.0,1.0,88,0.00,,CLR,0.00,0.00,VWS V14.01,2013-08-07 08:27:00,
2013-08-07 03:32:00,57.1,53.9,29.70,SW,225,0.0,0.0,89,0.00,,CLR,0.00,0.00,VWS V14.01,2013-08-07 08:32:00,
2013-08-07 03:37:00,57.1,53.6,29.70,SW,225,0.0,0.0,88,0.00,,CLR,0.00,0.00,VWS V14.01,2013-08-07 08:37:00,
2013-08-07 03:42:00,57.1,53.6,29.70,SW,225,1.0,3.0,88,0.00,,CLR,0.00,0.00,VWS V14.01,2013-08-07 08:42:00,
2013-08-07 03:47:00,57.2,53.7,29.70,NW,304,0.0,3.0,88,0.00,,CLR,0.00,0.00,VWS V14.01,2013-08-07 08:47:00,
2013-08-07 03:52:00,57.8,54.3,29.70,NW,304,0.0,3.0,88,0.00,,CLR,0.00,0.00,VWS V14.01,2013-08-07 08:52:00,
2013-08-07 03:57:00,58.3,54.8,29.70,NW,304,1.0,3.0,88,0.00,,CLR,0.00,0.00,VWS V14.01,2013-08-07 08:57:00,
2013-08-07 04:02:00,58.6,55.1,29.71,NW,304,3.0,3.0,88,0.00,,CLR,0.00,0.00,VWS V14.01,2013-08-07 09:02:00,
2013-08-07 04:07:00,58.8,55.3,29.71,NW,304,3.0,5.0,88,0.00,,CLR,0.00,0.00,VWS V14.01,2013-08-07 09:07:00,
2013-08-07 04:12:00,59.1,55.5,29.71,West,281,3.0,5.0,88,0.00,,CLR,0.00,0.00,VWS V14.01,2013-08-07 09:12:00,
2013-08-07 04:17:00,59.6,56.0,29.71,NW,319,4.0,5.0,88,0.00,,CLR,0.00,0.00,VWS V14.01,2013-08-07 09:17:00,
2013-08-07 04:22:00,59.8,56.2,29.71,NW,321,0.0,5.0,88,0.00,,SCT003,0.00,0.00,VWS V14.01,2013-08-07 09:22:00,
2013-08-07 04:27:00,59.8,56.2,29.71,WNW,302,2.0,5.0,88,0.00,,SCT003,0.00,0.00,VWS V14.01,2013-08-07 09:27:00,
2013-08-07 04:32:00,59.9,56.3,29.71,NW,325,0.0,5.0,88,0.00,,SCT003,0.00,0.00,VWS V14.01,2013-08-07 09:32:00,
2013-08-07 04:37:00,59.9,56.3,29.71,NW,325,1.0,5.0,88,0.00,,SCT003,0.00,0.00,VWS V14.01,2013-08-07 09:37:00,
2013-08-07 04:42:00,60.0,56.4,29.71,NW,324,0.0,5.0,88,0.00,,BKN009,0.00,0.00,VWS V14.01,2013-08-07 09:42:00,
2013-08-07 04:47:00,60.0,56.4,29.72,NW,316,1.0,6.0,88,0.00,,BKN009,0.00,0.00,VWS V14.01,2013-08-07 09:47:00,
2013-08-07 04:52:00,60.2,56.6,29.72,NW,304,2.0,7.0,88,0.00,,BKN009,0.00,0.00,VWS V14.01,2013-08-07 09:52:00,
2013-08-07 04:57:00,60.2,56.6,29.71,WNW,297,2.0,7.0,88,0.00,,BKN009,0.00,0.00,VWS V14.01,2013-08-07 09:57:00,
2013-08-07 05:02:00,60.3,56.7,29.71,NW,307,2.0,7.0,88,0.00,,,0.00,0.00,VWS V14.01,2013-08-07 10:02:00,
2013-08-07 05:08:00,60.4,56.8,29.71,WNW,303,0.0,7.0,88,0.00,,,0.00,0.00,VWS V14.01,2013-08-07 10:08:00,
2013-08-07 05:13:00,60.4,56.8,29.71,NW,309,0.0,7.0,88,0.00,,,0.00,0.00,VWS V14.01,2013-08-07 10:13:00,
2013-08-07 05:18:00,60.5,56.9,29.71,NW,306,0.0,9.0,88,0.00,,,0.00,0.00,VWS V14.01,2013-08-07 10:18:00,
2013-08-07 05:23:00,60.5,56.9,29.72,NW,309,0.0,9.0,88,0.00,,OVC004,0.00,0.00,VWS V14.01,2013-08-07 10:23:00,
2013-08-07 05:28:00,60.6,57.0,29.72,NW,304,0.0,9.0,88,0.00,,OVC004,0.00,0.00,VWS V14.01,2013-08-07 10:28:00,
2013-08-07 05:33:00,60.7,57.1,29.72,NW,304,0.0,3.0,88,0.00,,OVC004,0.00,0.00,VWS V14.01,2013-08-07 10:33:00,
2013-08-07 05:38:00,60.7,57.1,29.72,NW,304,1.0,3.0,88,0.00,,OVC004,0.00,0.00,VWS V14.01,2013-08-07 10:38:00,
2013-08-07 05:43:00,60.8,57.2,29.72,NW,308,0.0,3.0,88,0.00,,OVC004,0.00,0.00,VWS V14.01,2013-08-07 10:43:00,
2013-08-07 05:48:00,60.9,57.3,29.72,NW,308,0.0,3.0,88,0.00,,OVC004,0.00,0.00,VWS V14.01,2013-08-07 10:48:00,
2013-08-07 05:53:00,60.9,57.3,29.73,NW,323,3.0,5.0,88,0.00,,OVC004,0.00,0.00,VWS V14.01,2013-08-07 10:53:00,
2013-08-07 05:58:00,61.1,57.5,29.73,WNW,300,4.0,5.0,88,0.00,,OVC004,0.00,0.00,VWS V14.01,2013-08-07 10:58:00,
2013-08-07 06:03:00,61.2,57.6,29.73,WNW,298,0.0,2.0,88,0.00,,OVC004,0.00,0.00,VWS V14.01,2013-08-07 11:03:00,
2013-08-07 06:08:00,61.3,57.7,29.73,WNW,300,0.0,2.0,88,0.00,,OVC004,0.00,0.00,VWS V14.01,2013-08-07 11:08:00,
2013-08-07 06:13:00,61.3,57.7,29.73,NW,308,0.0,2.0,88,0.00,,OVC004,0.00,0.00,VWS V14.01,2013-08-07 11:13:00,
2013-08-07 06:18:00,61.4,57.8,29.73,NW,312,0.0,2.0,88,0.00,,OVC004,0.00,5.00,VWS V14.01,2013-08-07 11:18:00,
2013-08-07 06:23:00,61.5,57.9,29.73,NNW,331,1.0,3.0,88,0.00,,OVC004,0.00,7.00,VWS V14.01,2013-08-07 11:23:00,
2013-08-07 06:28:00,61.6,58.0,29.74,NW,308,2.0,3.0,88,0.00,,OVC004,0.00,5.00,VWS V14.01,2013-08-07 11:28:00,
2013-08-07 06:33:00,61.7,58.1,29.75,North,5,0.0,1.0,88,0.00,,OVC004,0.00,7.00,VWS V14.01,2013-08-07 11:33:00,
2013-08-07 06:38:00,61.8,58.2,29.75,WNW,296,0.0,3.0,88,0.00,,OVC004,0.00,11.00,VWS V14.01,2013-08-07 11:38:00,
2013-08-07 06:43:00,61.9,58.3,29.75,WNW,296,5.0,5.0,88,0.00,,OVC004,0.00,14.00,VWS V14.01,2013-08-07 11:43:00,
2013-08-07 06:48:00,62.0,58.4,29.75,WNW,296,2.0,5.0,88,0.00,,OVC004,0.00,19.00,VWS V14.01,2013-08-07 11:48:00,
2013-08-07 06:53:00,62.1,58.5,29.75,WNW,296,0.0,5.0,88,0.00,,OVC004,0.00,26.00,VWS V14.01,2013-08-07 11:53:00,
2013-08-07 06:58:00,62.2,58.6,29.76,WNW,296,0.0,5.0,88,0.00,,OVC004,0.00,26.00,VWS V14.01,2013-08-07 11:58:00,
2013-08-07 07:03:00,62.3,58.7,29.76,WNW,296,0.0,2.0,88,0.00,,OVC006,0.00,32.00,VWS V14.01,2013-08-07 12:03:00,
2013-08-07 07:08:00,62.3,58.7,29.76,WNW,296,2.0,4.0,88,0.00,,OVC006,0.00,30.00,VWS V14.01,2013-08-07 12:08:00,
2013-08-07 07:13:00,62.4,58.8,29.76,WNW,296,1.0,4.0,88,0.00,,OVC006,0.00,33.00,VWS V14.01,2013-08-07 12:13:00,
2013-08-07 07:18:00,62.5,58.9,29.76,WNW,296,2.0,4.0,88,0.00,,OVC006,0.00,42.00,VWS V14.01,2013-08-07 12:18:00,
2013-08-07 07:23:00,62.7,59.1,29.77,NW,310,0.0,5.0,88,0.00,,OVC006,0.00,40.00,VWS V14.01,2013-08-07 12:23:00,
2013-08-07 07:28:00,62.8,59.2,29.77,NW,306,2.0,5.0,88,0.00,,OVC006,0.00,98.00,VWS V14.01,2013-08-07 12:28:00,
2013-08-07 07:33:00,63.0,59.4,29.77,West,281,1.0,4.0,88,0.00,,OVC006,0.00,69.00,VWS V14.01,2013-08-07 12:33:00,
2013-08-07 07:38:00,63.1,59.5,29.77,WNW,285,0.0,4.0,88,0.00,,OVC006,0.00,100.00,VWS V14.01,2013-08-07 12:38:00,
2013-08-07 07:43:00,63.3,59.7,29.77,NW,306,0.0,4.0,88,0.00,,OVC006,0.00,86.00,VWS V14.01,2013-08-07 12:43:00,
2013-08-07 07:48:00,63.4,59.8,29.77,NW,306,0.0,4.0,88,0.00,,OVC006,0.00,90.00,VWS V14.01,2013-08-07 12:48:00,
2013-08-07 07:53:00,63.5,59.9,29.77,North,355,1.0,4.0,88,0.00,,OVC006,0.00,105.00,VWS V14.01,2013-08-07 12:53:00,
2013-08-07 07:58:00,63.5,59.9,29.77,North,350,0.0,4.0,88,0.00,,OVC006,0.00,109.00,VWS V14.01,2013-08-07 12:58:00,
2013-08-07 08:03:00,63.7,60.1,29.78,NW,314,0.0,3.0,88,0.00,,OVC010,0.00,113.00,VWS V14.01,2013-08-07 13:03:00,
2013-08-07 08:08:00,63.9,60.3,29.78,NW,314,0.0,3.0,88,0.00,,OVC010,0.00,135.00,VWS V14.01,2013-08-07 13:08:00,
2013-08-07 08:13:00,64.0,60.4,29.78,NW,314,0.0,3.0,88,0.00,,OVC010,0.00,134.00,VWS V14.01,2013-08-07 13:13:00,
2013-08-07 08:18:00,64.0,60.4,29.78,North,360,1.0,5.0,88,0.00,,OVC010,0.00,162.00,VWS V14.01,2013-08-07 13:18:00,
2013-08-07 08:23:00,63.9,60.3,29.78,NE,35,0.0,7.0,88,0.00,,OVC010,0.00,114.00,VWS V14.01,2013-08-07 13:23:00,
2013-08-07 08:28:00,63.8,60.2,29.78,WSW,242,1.0,7.0,88,0.00,,OVC010,0.00,76.00,VWS V14.01,2013-08-07 13:28:00,
2013-08-07 08:33:00,63.6,59.7,29.78,NW,311,4.0,7.0,87,0.00,,OVC010,0.00,40.00,VWS V14.01,2013-08-07 13:33:00,
2013-08-07 08:38:00,63.5,59.6,29.79,NW,314,0.0,7.0,87,0.00,,OVC010,0.00,67.00,VWS V14.01,2013-08-07 13:38:00,
2013-08-07 08:43:00,63.5,59.6,29.79,NNE,17,3.0,7.0,87,0.00,,OVC010,0.00,114.00,VWS V14.01,2013-08-07 13:43:00,
2013-08-07 08:48:00,63.4,59.5,29.80,NW,320,6.0,7.0,87,0.00,,OVC010,0.00,97.00,VWS V14.01,2013-08-07 13:48:00,
2013-08-07 08:53:00,63.5,59.6,29.80,NW,309,3.0,11.0,87,0.00,,OVC010,0.00,123.00,VWS V14.01,2013-08-07 13:53:00,
2013-08-07 08:58:00,63.4,59.5,29.80,NNW,335,0.0,11.0,87,0.00,,OVC010,0.00,100.00,VWS V14.01,2013-08-07 13:58:00,
2013-08-07 09:03:00,63.3,59.4,29.80,NW,304,0.0,6.0,87,0.00,,OVC016,0.00,76.00,VWS V14.01,2013-08-07 14:03:00,
2013-08-07 09:08:00,63.2,59.3,29.80,NW,306,0.0,6.0,87,0.00,,OVC016,0.00,132.00,VWS V14.01,2013-08-07 14:08:00,
2013-08-07 09:13:00,63.2,59.3,29.80,North,355,0.0,6.0,87,0.00,,OVC016,0.00,165.00,VWS V14.01,2013-08-07 14:13:00,
2013-08-07 09:18:00,63.4,59.5,29.80,North,355,0.0,6.0,87,0.00,,OVC016,0.00,190.00,VWS V14.01,2013-08-07 14:18:00,
2013-08-07 09:23:00,63.5,59.6,29.81,NNW,339,0.0,6.0,87,0.00,,OVC016,0.00,183.00,VWS V14.01,2013-08-07 14:23:00,
2013-08-07 09:28:00,63.6,59.7,29.81,North,355,0.0,6.0,87,0.00,,OVC016,0.00,178.00,VWS V14.01,2013-08-07 14:28:00,
2013-08-07 09:33:00,63.7,59.8,29.81,WSW,257,1.0,5.0,87,0.00,,OVC016,0.00,153.00,VWS V14.01,2013-08-07 14:33:00,
2013-08-07 09:38:00,63.8,59.9,29.81,NNE,15,0.0,8.0,87,0.00,,OVC016,0.00,179.00,VWS V14.01,2013-08-07 14:38:00,
2013-08-07 09:43:00,63.6,60.0,29.81,NW,312,0.0,8.0,88,0.00,,OVC016,0.00,151.00,VWS V14.01,2013-08-07 14:43:00,
2013-08-07 09:48:00,63.5,60.2,29.81,NW,306,4.0,8.0,89,0.00,,OVC016,0.00,171.00,VWS V14.01,2013-08-07 14:48:00,
2013-08-07 09:53:00,63.4,60.1,29.81,NNE,31,0.0,8.0,89,0.00,,OVC016,0.00,160.00,VWS V14.01,2013-08-07 14:53:00,
2013-08-07 09:58:00,63.4,60.1,29.82,NW,307,5.0,8.0,89,0.00,,OVC016,0.00,190.00,VWS V14.01,2013-08-07 14:58:00,
2013-08-07 10:03:00,63.4,60.1,29.82,NW,319,0.0,7.0,89,0.00,,OVC016,0.00,169.00,VWS V14.01,2013-08-07 15:03:00,
2013-08-07 10:08:00,63.5,60.5,29.82,WNW,296,3.0,7.0,90,0.00,,OVC016,0.00,202.00,VWS V14.01,2013-08-07 15:08:00,
2013-08-07 10:13:00,63.8,60.5,29.83,WNW,288,3.0,7.0,89,0.00,,OVC016,0.00,185.00,VWS V14.01,2013-08-07 15:13:00,
2013-08-07 10:18:00,64.0,61.0,29.83,East,88,1.0,8.0,90,0.00,,OVC016,0.00,239.00,VWS V14.01,2013-08-07 15:18:00,
2013-08-07 10:23:00,64.3,61.3,29.83,NW,318,4.0,8.0,90,0.00,,OVC030,0.00,334.00,VWS V14.01,2013-08-07 15:23:00,
2013-08-07 10:28:00,64.5,61.5,29.83,NW,322,0.0,8.0,90,0.00,,OVC030,0.00,448.00,VWS V14.01,2013-08-07 15:28:00,
2013-08-07 10:33:00,64.9,61.6,29.83,NNE,29,5.0,6.0,89,0.00,,OVC030,0.00,543.00,VWS V14.01,2013-08-07 15:33:00,
2013-08-07 10:38:00,65.3,61.7,29.83,North,5,2.0,6.0,88,0.00,,OVC030,0.00,415.00,VWS V14.01,2013-08-07 15:38:00,
2013-08-07 10:43:00,65.8,61.8,29.83,North,5,6.0,8.0,87,0.00,,OVC030,0.00,464.00,VWS V14.01,2013-08-07 15:43:00,
2013-08-07 10:48:00,65.8,61.2,29.83,North,9,0.0,8.0,85,0.00,,OVC030,0.00,320.00,VWS V14.01,2013-08-07 15:48:00,
2013-08-07 10:53:00,65.7,61.1,29.83,NW,308,1.0,8.0,85,0.00,,OVC030,0.00,316.00,VWS V14.01,2013-08-07 15:53:00,
2013-08-07 10:58:00,65.5,61.2,29.84,NW,311,0.0,8.0,86,0.00,,OVC030,0.00,369.00,VWS V14.01,2013-08-07 15:58:00,
2013-08-07 11:03:00,65.8,61.5,29.84,WNW,297,0.0,8.0,86,0.00,,OVC032,0.00,432.00,VWS V14.01,2013-08-07 16:03:00,
2013-08-07 11:08:00,66.2,61.2,29.84,WNW,299,4.0,8.0,84,0.00,,OVC032,0.00,362.00,VWS V14.01,2013-08-07 16:08:00,
2013-08-07 11:13:00,66.5,61.2,29.84,NW,318,3.0,8.0,83,0.00,,OVC032,0.00,786.00,VWS V14.01,2013-08-07 16:13:00,
2013-08-07 11:18:00,66.8,60.8,29.84,WNW,302,1.0,8.0,81,0.00,,OVC032,0.00,833.00,VWS V14.01,2013-08-07 16:18:00,
2013-08-07 11:23:00,67.6,61.9,29.84,East,85,0.0,8.0,82,0.00,,OVC032,0.00,893.00,VWS V14.01,2013-08-07 16:23:00,
2013-08-07 11:28:00,68.7,63.0,29.84,NW,304,9.0,11.0,82,0.00,,OVC032,0.00,1055.00,VWS V14.01,2013-08-07 16:28:00,
2013-08-07 11:34:00,68.6,61.5,29.84,NNE,13,2.0,9.0,78,0.00,,OVC032,0.00,923.00,VWS V14.01,2013-08-07 16:34:00,
2013-08-07 11:38:00,68.8,61.3,29.84,WNW,296,5.0,9.0,77,0.00,,OVC032,0.00,990.00,VWS V14.01,2013-08-07 16:38:00,
2013-08-07 11:43:00,68.8,60.6,29.85,NW,323,4.0,11.0,75,0.00,,OVC032,0.00,192.00,VWS V14.01,2013-08-07 16:43:00,
2013-08-07 11:49:00,68.4,61.3,29.85,NNE,24,0.0,11.0,78,0.00,,OVC032,0.00,835.00,VWS V14.01,2013-08-07 16:49:00,
2013-08-07 11:54:00,68.6,61.5,29.85,WNW,284,3.0,11.0,78,0.00,,OVC032,0.00,886.00,VWS V14.01,2013-08-07 16:54:00,
2013-08-07 11:59:00,69.1,60.8,29.85,SW,216,0.0,11.0,75,0.00,,OVC032,0.00,202.00,VWS V14.01,2013-08-07 16:59:00,
2013-08-07 12:04:00,69.2,61.3,29.85,WNW,286,5.0,8.0,76,0.00,,OVC032,0.00,264.00,VWS V14.01,2013-08-07 17:04:00,
2013-08-07 12:09:00,69.7,61.4,29.85,West,273,8.0,9.0,75,0.00,,OVC032,0.00,969.00,VWS V14.01,2013-08-07 17:09:00,
2013-08-07 12:14:00,69.2,61.3,29.85,WNW,285,5.0,11.0,76,0.00,,OVC032,0.00,218.00,VWS V14.01,2013-08-07 17:14:00,
2013-08-07 12:19:00,69.5,61.2,29.86,West,263,9.0,11.0,75,0.00,,OVC032,0.00,863.00,VWS V14.01,2013-08-07 17:19:00,
2013-08-07 12:24:00,70.3,62.0,29.86,North,355,3.0,11.0,75,0.00,,OVC032,0.00,893.00,VWS V14.01,2013-08-07 17:24:00,
2013-08-07 12:29:00,70.6,61.9,29.86,NW,319,8.0,11.0,74,0.00,,OVC032,0.00,947.00,VWS V14.01,2013-08-07 17:29:00,
2013-08-07 12:34:00,70.6,60.8,29.86,SSW,199,1.0,11.0,71,0.00,,OVC032,0.00,977.00,VWS V14.01,2013-08-07 17:34:00,
2013-08-07 12:39:00,70.6,61.1,29.86,NW,313,1.0,11.0,72,0.00,,OVC032,0.00,281.00,VWS V14.01,2013-08-07 17:39:00,
2013-08-07 12:44:00,70.3,60.5,29.86,WNW,300,8.0,11.0,71,0.00,,BKN044,0.00,153.00,VWS V14.01,2013-08-07 17:44:00,
2013-08-07 12:49:00,69.9,61.2,29.86,West,278,5.0,11.0,74,0.00,,BKN044,0.00,969.00,VWS V14.01,2013-08-07 17:49:00,
2013-08-07 12:54:00,70.5,61.4,29.86,NNW,342,2.0,11.0,73,0.00,,BKN044,0.00,1002.00,VWS V14.01,2013-08-07 17:54:00,
2013-08-07 12:59:00,70.8,60.5,29.86,NW,315,1.0,1.0,70,0.00,,BKN044,0.00,104.00,VWS V14.01,2013-08-07 17:59:00,
2013-08-07 13:04:00,70.7,60.0,29.86,NNW,327,3.0,5.0,69,0.00,,BKN045,0.00,967.00,VWS V14.01,2013-08-07 18:04:00,
2013-08-07 13:09:00,71.6,60.1,29.86,WNW,289,3.0,8.0,67,0.00,,BKN045,0.00,1097.00,VWS V14.01,2013-08-07 18:09:00,
2013-08-07 13:14:00,71.7,60.2,29.86,West,273,8.0,10.0,67,0.00,,BKN045,0.00,225.00,VWS V14.01,2013-08-07 18:14:00,
2013-08-07 13:19:00,71.1,60.8,29.86,North,355,0.0,10.0,70,0.00,,BKN045,0.00,1081.00,VWS V14.01,2013-08-07 18:19:00,
2013-08-07 13:24:00,71.1,60.8,29.86,NW,317,0.0,10.0,70,0.00,,BKN045,0.00,188.00,VWS V14.01,2013-08-07 18:24:00,
2013-08-07 13:29:00,70.7,60.0,29.86,NNW,346,5.0,5.0,69,0.00,,BKN045,0.00,232.00,VWS V14.01,2013-08-07 18:29:00,
2013-08-07 13:34:00,70.7,59.2,29.86,WNW,286,4.0,7.0,67,0.00,,BKN045,0.00,1079.00,VWS V14.01,2013-08-07 18:34:00,
2013-08-07 13:39:00,71.2,60.1,29.86,NW,306,0.0,7.0,68,0.00,,BKN045,0.00,979.00,VWS V14.01,2013-08-07 18:39:00,
2013-08-07 13:44:00,71.9,59.9,29.86,South,184,0.0,7.0,66,0.00,,BKN045,0.00,962.00,VWS V14.01,2013-08-07 18:44:00,
2013-08-07 13:49:00,72.7,59.8,29.86,ENE,59,1.0,7.0,64,0.00,,BKN045,0.00,1009.00,VWS V14.01,2013-08-07 18:49:00,
2013-08-07 13:54:00,73.3,61.3,29.86,North,360,0.0,9.0,66,0.00,,BKN045,0.00,1085.00,VWS V14.01,2013-08-07 18:54:00,
2013-08-07 13:59:00,72.9,60.0,29.86,ENE,58,0.0,0.0,64,0.00,,FEW040,0.00,969.00,VWS V14.01,2013-08-07 18:59:00,
2013-08-07 14:04:00,73.0,60.5,29.86,East,95,0.0,1.0,65,0.00,,FEW040,0.00,918.00,VWS V14.01,2013-08-07 19:04:00,
2013-08-07 14:09:00,73.2,58.0,29.86,WNW,299,0.0,2.0,59,0.00,,FEW040,0.00,933.00,VWS V14.01,2013-08-07 19:09:00,
2013-08-07 14:14:00,73.5,58.8,29.86,NNE,30,0.0,6.0,60,0.00,,FEW040,0.00,223.00,VWS V14.01,2013-08-07 19:14:00,
2013-08-07 14:19:00,73.1,59.3,29.86,NE,49,1.0,8.0,62,0.00,,FEW040,0.00,951.00,VWS V14.01,2013-08-07 19:19:00,
2013-08-07 14:24:00,73.3,59.0,29.86,NW,304,1.0,10.0,61,0.00,,FEW040,0.00,919.00,VWS V14.01,2013-08-07 19:24:00,
2013-08-07 14:29:00,73.5,56.9,29.86,NW,309,1.0,1.0,56,0.00,,FEW040,0.00,979.00,VWS V14.01,2013-08-07 19:29:00,
2013-08-07 14:34:00,73.5,60.2,29.86,NW,321,2.0,4.0,63,0.00,,FEW040,0.00,248.00,VWS V14.01,2013-08-07 19:34:00,
2013-08-07 14:39:00,72.5,58.8,29.86,NNW,329,0.0,5.0,62,0.00,,FEW040,0.00,149.00,VWS V14.01,2013-08-07 19:39:00,
2013-08-07 14:44:00,72.5,60.1,29.86,SE,139,0.0,5.0,65,0.00,,FEW040,0.00,882.00,VWS V14.01,2013-08-07 19:44:00,
2013-08-07 14:49:00,73.0,57.4,29.86,WNW,299,0.0,8.0,58,0.00,,FEW040,0.00,860.00,VWS V14.01,2013-08-07 19:49:00,
2013-08-07 14:54:00,73.3,56.2,29.86,NNE,32,2.0,8.0,55,0.00,,FEW040,0.00,854.00,VWS V14.01,2013-08-07 19:54:00,
2013-08-07 14:59:00,73.7,56.5,29.86,NNE,13,0.0,0.0,55,0.00,,FEW040,0.00,849.00,VWS V14.01,2013-08-07 19:59:00,
2013-08-07 15:04:00,74.2,59.0,29.86,WSW,252,0.0,3.0,59,0.00,,FEW040,0.00,837.00,VWS V14.01,2013-08-07 20:04:00,
2013-08-07 15:09:00,74.7,59.9,29.86,NW,312,0.0,4.0,60,0.00,,FEW040,0.00,831.00,VWS V14.01,2013-08-07 20:09:00,
2013-08-07 15:14:00,74.8,56.5,29.86,NW,304,4.0,9.0,53,0.00,,FEW040,0.00,828.00,VWS V14.01,2013-08-07 20:14:00,
2013-08-07 15:19:00,74.6,56.4,29.86,WNW,296,6.0,11.0,53,0.00,,FEW046,0.00,816.00,VWS V14.01,2013-08-07 20:19:00,
2013-08-07 15:24:00,74.7,55.9,29.86,NNW,339,1.0,11.0,52,0.00,,FEW046,0.00,814.00,VWS V14.01,2013-08-07 20:24:00,
2013-08-07 15:29:00,74.9,57.7,29.87,NNE,14,3.0,4.0,55,0.00,,FEW046,0.00,802.00,VWS V14.01,2013-08-07 20:29:00,
2013-08-07 15:34:00,75.3,59.0,29.87,NE,44,0.0,5.0,57,0.00,,FEW046,0.00,795.00,VWS V14.01,2013-08-07 20:34:00,
2013-08-07 15:39:00,75.2,56.4,29.87,WNW,297,0.0,9.0,52,0.00,,FEW046,0.00,788.00,VWS V14.01,2013-08-07 20:39:00,
2013-08-07 15:44:00,75.3,57.0,29.87,NW,315,3.0,9.0,53,0.00,,FEW046,0.00,768.00,VWS V14.01,2013-08-07 20:44:00,
2013-08-07 15:49:00,75.3,55.9,29.87,WNW,298,1.0,9.0,51,0.00,,FEW046,0.00,763.00,VWS V14.01,2013-08-07 20:49:00,
2013-08-07 15:54:00,75.3,57.5,29.87,NNW,332,1.0,9.0,54,0.00,,FEW046,0.00,749.00,VWS V14.01,2013-08-07 20:54:00,
2013-08-07 15:59:00,75.1,54.1,29.87,NW,318,3.0,3.0,48,0.00,,CLR,0.00,744.00,VWS V14.01,2013-08-07 20:59:00,
2013-08-07 16:04:00,74.9,56.1,29.87,NNW,344,1.0,6.0,52,0.00,,CLR,0.00,735.00,VWS V14.01,2013-08-07 21:04:00,
2013-08-07 16:09:00,74.9,54.5,29.87,NW,309,1.0,6.0,49,0.00,,CLR,0.00,715.00,VWS V14.01,2013-08-07 21:09:00,
2013-08-07 16:14:00,75.0,54.0,29.87,NW,309,0.0,6.0,48,0.00,,CLR,0.00,707.00,VWS V14.01,2013-08-07 21:14:00,
2013-08-07 16:19:00,74.8,55.5,29.87,NE,51,0.0,6.0,51,0.00,,CLR,0.00,696.00,VWS V14.01,2013-08-07 21:19:00,
2013-08-07 16:24:00,74.8,57.1,29.87,NE,34,0.0,6.0,54,0.00,,CLR,0.00,698.00,VWS V14.01,2013-08-07 21:24:00,
2013-08-07 16:29:00,74.8,56.5,29.87,NNE,26,0.0,0.0,53,0.00,,CLR,0.00,726.00,VWS V14.01,2013-08-07 21:29:00,
2013-08-07 16:34:00,74.5,55.7,29.87,NW,325,0.0,2.0,52,0.00,,CLR,0.00,677.00,VWS V14.01,2013-08-07 21:34:00,
2013-08-07 16:39:00,74.6,55.8,29.87,West,261,1.0,3.0,52,0.00,,CLR,0.00,657.00,VWS V14.01,2013-08-07 21:39:00,
2013-08-07 16:44:00,74.9,55.0,29.87,North,9,0.0,4.0,50,0.00,,CLR,0.00,661.00,VWS V14.01,2013-08-07 21:44:00,
2013-08-07 16:49:00,75.0,55.7,29.87,NNW,339,1.0,5.0,51,0.00,,CLR,0.00,689.00,VWS V14.01,2013-08-07 21:49:00,
2013-08-07 16:54:00,74.8,56.0,29.87,NNW,339,0.0,5.0,52,0.00,,CLR,0.00,640.00,VWS V14.01,2013-08-07 21:54:00,
2013-08-07 16:59:00,74.7,55.9,29.87,NW,309,0.0,1.0,52,0.00,,CLR,0.00,589.00,VWS V14.01,2013-08-07 21:59:00,
2013-08-07 17:04:00,74.6,55.8,29.87,NW,309,0.0,1.0,52,0.00,,CLR,0.00,580.00,VWS V14.01,2013-08-07 22:04:00,
2013-08-07 17:09:00,74.6,55.3,29.87,NNW,340,1.0,3.0,51,0.00,,CLR,0.00,577.00,VWS V14.01,2013-08-07 22:09:00,
2013-08-07 17:14:00,75.1,55.2,29.87,SE,132,1.0,7.0,50,0.00,,CLR,0.00,550.00,VWS V14.01,2013-08-07 22:14:00,
2013-08-07 17:19:00,75.0,54.6,29.87,NW,310,1.0,7.0,49,0.00,,CLR,0.00,533.00,VWS V14.01,2013-08-07 22:19:00,
2013-08-07 17:24:00,75.1,55.8,29.88,WNW,301,2.0,7.0,51,0.00,,CLR,0.00,517.00,VWS V14.01,2013-08-07 22:24:00,
2013-08-07 17:29:00,75.2,56.9,29.87,WNW,297,1.0,1.0,53,0.00,,CLR,0.00,497.00,VWS V14.01,2013-08-07 22:29:00,
2013-08-07 17:34:00,75.3,54.8,29.87,NW,317,0.0,8.0,49,0.00,,CLR,0.00,480.00,VWS V14.01,2013-08-07 22:34:00,
2013-08-07 17:39:00,75.0,55.1,29.87,North,355,2.0,8.0,50,0.00,,CLR,0.00,462.00,VWS V14.01,2013-08-07 22:39:00,
2013-08-07 17:44:00,75.0,55.7,29.87,NW,314,1.0,8.0,51,0.00,,CLR,0.00,448.00,VWS V14.01,2013-08-07 22:44:00,
2013-08-07 17:49:00,75.0,56.2,29.87,NNW,338,1.0,8.0,52,0.00,,CLR,0.00,385.00,VWS V14.01,2013-08-07 22:49:00,
2013-08-07 17:54:00,75.1,54.7,29.88,WNW,302,0.0,8.0,49,0.00,,CLR,0.00,424.00,VWS V14.01,2013-08-07 22:54:00,
2013-08-07 17:59:00,74.9,55.6,29.88,NNW,336,0.0,0.0,51,0.00,,CLR,0.00,401.00,VWS V14.01,2013-08-07 22:59:00,
2013-08-07 18:04:00,74.8,55.5,29.87,NNW,329,2.0,7.0,51,0.00,,CLR,0.00,385.00,VWS V14.01,2013-08-07 23:04:00,
2013-08-07 18:09:00,74.7,54.8,29.87,NW,306,2.0,7.0,50,0.00,,CLR,0.00,369.00,VWS V14.01,2013-08-07 23:09:00,
2013-08-07 18:14:00,74.8,54.9,29.88,NW,311,0.0,7.0,50,0.00,,CLR,0.00,355.00,VWS V14.01,2013-08-07 23:14:00,
2013-08-07 18:19:00,75.0,55.7,29.88,NW,310,0.0,7.0,51,0.00,,CLR,0.00,346.00,VWS V14.01,2013-08-07 23:19:00,
2013-08-07 18:24:00,75.0,55.7,29.88,NW,310,0.0,7.0,51,0.00,,CLR,0.00,320.00,VWS V14.01,2013-08-07 23:24:00,
2013-08-07 18:29:00,75.0,57.2,29.88,NW,310,0.0,1.0,54,0.00,,CLR,0.00,306.00,VWS V14.01,2013-08-07 23:29:00,
2013-08-07 18:34:00,74.6,57.9,29.88,NNW,340,0.0,8.0,56,0.00,,CLR,0.00,292.00,VWS V14.01,2013-08-07 23:34:00,
2013-08-07 18:39:00,74.5,56.8,29.88,West,271,0.0,8.0,54,0.00,,CLR,0.00,276.00,VWS V14.01,2013-08-07 23:39:00,
2013-08-07 18:45:00,74.5,57.3,29.88,West,271,0.0,8.0,55,0.00,,CLR,0.00,258.00,VWS V14.01,2013-08-07 23:45:00,
2013-08-07 18:50:00,74.1,55.4,29.88,NNW,347,0.0,8.0,52,0.00,,CLR,0.00,241.00,VWS V14.01,2013-08-07 23:50:00,
2013-08-07 18:55:00,73.7,55.0,29.88,NNW,347,0.0,8.0,52,0.00,,CLR,0.00,225.00,VWS V14.01,2013-08-07 23:55:00,
2013-08-07 19:00:00,73.4,57.3,29.88,NNE,30,2.0,2.0,57,0.00,,CLR,0.00,211.00,VWS V14.01,2013-08-08 00:00:00,
2013-08-07 19:05:00,72.9,54.3,29.88,NW,322,0.0,3.0,52,0.00,,CLR,0.00,193.00,VWS V14.01,2013-08-08 00:05:00,
2013-08-07 19:10:00,72.7,54.6,29.88,NW,322,0.0,3.0,53,0.00,,CLR,0.00,181.00,VWS V14.01,2013-08-08 00:10:00,
2013-08-07 19:15:00,72.6,54.5,29.88,NW,322,0.0,3.0,53,0.00,,CLR,0.00,167.00,VWS V14.01,2013-08-08 00:15:00,
2013-08-07 19:20:00,72.6,56.5,29.89,NE,37,0.0,3.0,57,0.00,,CLR,0.00,155.00,VWS V14.01,2013-08-08 00:20:00,
2013-08-07 19:25:00,72.6,56.0,29.89,NE,37,0.0,3.0,56,0.00,,CLR,0.00,139.00,VWS V14.01,2013-08-08 00:25:00,
2013-08-07 19:30:00,72.6,56.5,29.89,NE,37,0.0,0.0,57,0.00,,CLR,0.00,125.00,VWS V14.01,2013-08-08 00:30:00,
2013-08-07 19:35:00,72.5,55.4,29.89,NE,37,0.0,1.0,55,0.00,,CLR,0.00,111.00,VWS V14.01,2013-08-08 00:35:00,
2013-08-07 19:40:00,72.2,55.7,29.89,NE,37,0.0,1.0,56,0.00,,CLR,0.00,95.00,VWS V14.01,2013-08-08 00:40:00,
2013-08-07 19:45:00,72.0,55.5,29.89,NE,37,0.0,1.0,56,0.00,,CLR,0.00,83.00,VWS V14.01,2013-08-08 00:45:00,
2013-08-07 19:50:00,71.8,56.2,29.90,NE,37,0.0,1.0,58,0.00,,CLR,0.00,69.00,VWS V14.01,2013-08-08 00:50:00,
2013-08-07 19:55:00,71.2,56.6,29.90,NE,37,0.0,1.0,60,0.00,,CLR,0.00,56.00,VWS V14.01,2013-08-08 00:55:00,
2013-08-07 20:00:00,70.5,56.0,29.90,NE,37,0.0,0.0,60,0.00,,CLR,0.00,44.00,VWS V14.01,2013-08-08 01:00:00,
2013-08-07 20:05:00,69.9,56.3,29.90,NE,37,0.0,0.0,62,0.00,,CLR,0.00,33.00,VWS V14.01,2013-08-08 01:05:00,
2013-08-07 20:10:00,69.4,55.8,29.90,NE,37,0.0,0.0,62,0.00,,CLR,0.00,25.00,VWS V14.01,2013-08-08 01:10:00,
2013-08-07 20:15:00,68.7,56.9,29.90,NE,37,0.0,0.0,66,0.00,,CLR,0.00,11.00,VWS V14.01,2013-08-08 01:15:00,
2013-08-07 20:20:00,68.0,57.5,29.90,NE,37,0.0,0.0,69,0.00,,CLR,0.00,5.00,VWS V14.01,2013-08-08 01:20:00,
2013-08-07 20:25:00,67.6,56.3,29.90,NE,37,0.0,0.0,67,0.00,,CLR,0.00,0.00,VWS V14.01,2013-08-08 01:25:00,
2013-08-07 20:30:00,67.2,57.9,29.90,NE,37,0.0,0.0,72,0.00,,CLR,0.00,0.00,VWS V14.01,2013-08-08 01:30:00,
2013-08-07 20:35:00,66.5,57.6,29.90,NE,37,0.0,0.0,73,0.00,,CLR,0.00,0.00,VWS V14.01,2013-08-08 01:35:00,
2013-08-07 20:40:00,65.7,57.2,29.91,NE,37,0.0,0.0,74,0.00,,CLR,0.00,0.00,VWS V14.01,2013-08-08 01:40:00,
2013-08-07 20:45:00,65.1,58.1,29.91,NE,37,0.0,0.0,78,0.00,,CLR,0.00,0.00,VWS V14.01,2013-08-08 01:45:00,
2013-08-07 20:50:00,64.5,56.8,29.91,NE,37,0.0,0.0,76,0.00,,CLR,0.00,0.00,VWS V14.01,2013-08-08 01:50:00,
2013-08-07 20:55:00,63.7,57.1,29.91,NE,37,0.0,0.0,79,0.00,,CLR,0.00,0.00,VWS V14.01,2013-08-08 01:55:00,
2013-08-07 21:00:00,63.2,56.6,29.91,NE,37,0.0,0.0,79,0.00,,CLR,0.00,0.00,VWS V14.01,2013-08-08 02:00:00,
2013-08-07 21:05:00,62.8,56.9,29.91,NE,37,0.0,0.0,81,0.00,,CLR,0.00,0.00,VWS V14.01,2013-08-08 02:05:00,
2013-08-07 21:10:00,62.5,56.9,29.92,NE,37,0.0,0.0,82,0.00,,CLR,0.00,0.00,VWS V14.01,2013-08-08 02:10:00,
2013-08-07 21:15:00,62.1,56.5,29.92,NE,37,0.0,0.0,82,0.00,,CLR,0.00,0.00,VWS V14.01,2013-08-08 02:15:00,
2013-08-07 21:20:00,61.5,56.0,29.92,NE,37,0.0,0.0,82,0.00,,CLR,0.00,0.00,VWS V14.01,2013-08-08 02:20:00,
2013-08-07 21:25:00,61.2,56.3,29.92,NE,37,0.0,0.0,84,0.00,,CLR,0.00,0.00,VWS V14.01,2013-08-08 02:25:00,
2013-08-07 21:30:00,61.1,56.2,29.93,NE,37,0.0,0.0,84,0.00,,CLR,0.00,0.00,VWS V14.01,2013-08-08 02:30:00,
2013-08-07 21:35:00,60.8,56.3,29.93,NE,37,0.0,0.0,85,0.00,,CLR,0.00,0.00,VWS V14.01,2013-08-08 02:35:00,
2013-08-07 21:40:00,60.4,55.9,29.93,NE,37,0.0,0.0,85,0.00,,CLR,0.00,0.00,VWS V14.01,2013-08-08 02:40:00,
2013-08-07 21:45:00,59.9,55.4,29.93,NE,37,0.0,0.0,85,0.00,,CLR,0.00,0.00,VWS V14.01,2013-08-08 02:45:00,
2013-08-07 21:50:00,59.7,55.5,29.94,NE,37,0.0,0.0,86,0.00,,CLR,0.00,0.00,VWS V14.01,2013-08-08 02:50:00,
2013-08-07 21:55:00,59.5,55.6,29.94,NE,37,0.0,0.0,87,0.00,,CLR,0.00,0.00,VWS V14.01,2013-08-08 02:55:00,
2013-08-07 22:00:00,59.0,54.8,29.94,NE,37,0.0,0.0,86,0.00,,CLR,0.00,0.00,VWS V14.01,2013-08-08 03:00:00,
2013-08-07 22:05:00,58.9,55.0,29.94,NE,37,0.0,0.0,87,0.00,,CLR,0.00,0.00,VWS V14.01,2013-08-08 03:05:00,
2013-08-07 22:10:00,58.9,55.4,29.94,NE,37,0.0,0.0,88,0.00,,CLR,0.00,0.00,VWS V14.01,2013-08-08 03:10:00,
2013-08-07 22:15:00,58.9,55.4,29.95,NE,37,0.0,0.0,88,0.00,,CLR,0.00,0.00,VWS V14.01,2013-08-08 03:15:00,
2013-08-07 22:20:00,58.7,55.2,29.95,NE,37,0.0,0.0,88,0.00,,CLR,0.00,0.00,VWS V14.01,2013-08-08 03:20:00,
2013-08-07 22:25:00,58.5,54.7,29.95,NE,37,0.0,0.0,87,0.00,,CLR,0.00,0.00,VWS V14.01,2013-08-08 03:25:00,
2013-08-07 22:30:00,58.2,54.7,29.95,NE,37,0.0,0.0,88,0.00,,CLR,0.00,0.00,VWS V14.01,2013-08-08 03:30:00,
2013-08-07 22:35:00,58.1,54.6,29.95,NE,37,0.0,0.0,88,0.00,,CLR,0.00,0.00,VWS V14.01,2013-08-08 03:35:00,
2013-08-07 22:40:00,58.1,54.9,29.95,NE,37,0.0,0.0,89,0.00,,CLR,0.00,0.00,VWS V14.01,2013-08-08 03:40:00,
2013-08-07 22:45:00,57.9,54.4,29.95,NE,37,0.0,0.0,88,0.00,,CLR,0.00,0.00,VWS V14.01,2013-08-08 03:45:00,
2013-08-07 22:50:00,57.7,54.2,29.95,NE,37,0.0,0.0,88,0.00,,CLR,0.00,0.00,VWS V14.01,2013-08-08 03:50:00,
2013-08-07 22:55:00,57.6,54.4,29.95,NE,37,0.0,0.0,89,0.00,,CLR,0.00,0.00,VWS V14.01,2013-08-08 03:55:00,
2013-08-07 23:00:00,57.5,54.3,29.95,NE,37,0.0,0.0,89,0.00,,FEW060,0.00,0.00,VWS V14.01,2013-08-08 04:00:00,
2013-08-07 23:01:00,57.5,54.3,29.95,NE,37,0.0,0.0,89,0.00,,FEW060,0.00,0.00,VWS V14.01,2013-08-08 04:01:00,
2013-08-07 23:06:00,57.3,54.1,29.95,NE,38,0.0,0.0,89,0.00,,FEW060,0.00,0.00,VWS V14.01,2013-08-08 04:06:00,
2013-08-07 23:11:00,57.2,53.7,29.95,NE,37,0.0,0.0,88,0.00,,FEW060,0.00,0.00,VWS V14.01,2013-08-08 04:11:00,
2013-08-07 23:16:00,57.0,53.8,29.95,NE,37,0.0,0.0,89,0.00,,FEW060,0.00,0.00,VWS V14.01,2013-08-08 04:16:00,
2013-08-07 23:21:00,56.9,53.7,29.95,NE,37,0.0,0.0,89,0.00,,FEW060,0.00,0.00,VWS V14.01,2013-08-08 04:21:00,
2013-08-07 23:26:00,56.8,53.6,29.95,NE,37,0.0,0.0,89,0.00,,FEW060,0.00,0.00,VWS V14.01,2013-08-08 04:26:00,
2013-08-07 23:31:00,56.7,53.5,29.95,NE,37,0.0,0.0,89,0.00,,FEW060,0.00,0.00,VWS V14.01,2013-08-08 04:31:00,
2013-08-07 23:36:00,56.3,53.1,29.96,NE,37,0.0,0.0,89,0.00,,FEW060,0.00,0.00,VWS V14.01,2013-08-08 04:36:00,
2013-08-07 23:41:00,56.0,52.8,29.96,NE,37,0.0,0.0,89,0.00,,FEW060,0.00,0.00,VWS V14.01,2013-08-08 04:41:00,
2013-08-07 23:46:00,56.0,52.8,29.95,NE,37,0.0,0.0,89,0.00,,FEW060,0.00,0.00,VWS V14.01,2013-08-08 04:46:00,
2013-08-07 23:51:00,56.0,53.1,29.95,NE,37,0.0,0.0,90,0.00,,FEW060,0.00,0.00,VWS V14.01,2013-08-08 04:51:00,
2013-08-07 23:56:00,56.0,53.1,29.95,NE,37,0.0,0.0,90,0.00,,FEW060,0.00,0.00,VWS V14.01,2013-08-08 04:56:00,